Showing default

COSMOS 2531, 43752

Orbit data source: Space-Track

COSMOS 2531, 43752 is a payload satellite owned by VVKO VKS (CIS) in LEO that was launched on Fri, 30 Nov 2018 UTC via an ROKOT launch vehicle from the Plesetsk Missile And Space Complex (PKMTR). Payload-class satellites include a variety of spacecraft equipped with specific instruments for various scientific and technological missions. These include communications satellites like Starlink; space stations such as the ISS; scientific satellites like the Hubble; Earth observation satellites from companies like Planet Labs, Umbra, and HawkEye 360; GPS; miniature CubeSats for education and research; and military/defense satellites.

Loading next visibility...
Identifier
43752, 2018-097B
Orbit
LEO
Country
Flag of CISCIS
Related business
Manufacturer
Resehetnev ISS
Mission
Operational Defense Communications
Bus & Motor
STRELA-3M, Unknown motor
Mass
280 kg wet, 280 kg dry
Launch date (UTC)
2018-11-30 (7 years ago)
Launch vehicle
ROKOT
Launch site
Plesetsk Missile And Space Complex (PKMTR)
Object type
Payload
Rocket body
Debris
Shape & HBR
Cyl + 1 Ant, 3.5 m
Radar Cross Section
1.583 m², Large (>1 m²)

Expand to show TLE details & history
Last TLE update: 5 hours ago

TLE from 5 hours ago
0 COSMOS 2531
1 43752U 18097B   26125.81690390 -.00000042  00000-0 -37407-3 0  9990
2 43752  82.5188 249.6180 0017649 145.3071 214.9164 12.42911560337048
Epoch: 2026-05-05T19:36Z
TLE epoch observation values (Epoch: 2026-05-05T19:36:20.496Z)
Latitude
-0°
Longitude
91.84629°
Altitude
1,508.388 km
Speed
7.105 km/s
True Right ascension
16h 38m 28s
True Declination
0° 00' 00"
Sunlit
Object was in full shadow at epoch
Visualization orbit readout
Latitude
Unknown
Longitude
Unknown
Altitude
Unknown
Speed
Unknown
Apparent Right ascension
Unknown
Apparent Declination
Unknown
Sunlit
N/A
Visualization observer readout
Local Sidereal Time
08:37:03
Azimuth
Unknown
Elevation
Unknown
Doppler factor
Unknown
Orbital elements
Apogee altitude
1,505.525 km
Perigee altitude
1,477.746 km
Semi-major axis
7,869.772 km
Eccentricity
0.00176
Inclination
82.5188°
RAAN
249.618°
Arg. of periapsis
145.3071°
True anomaly
214.80085°
Mean anomaly
214.9164°
Eccentric anomaly
214.8586°
Mean motion
3.10885 °/min
Orbital period
115.8 mins
BSTAR
-0.00037407
Loading maneuver chart data...
Computing Atmospheric mass density...
Loading historical data...
Loading historical data...
Loading historical data...
Loading historical data...
Loading historical data...
Loading historical data...
Loading historical data...
Other satellites on launch #97 in the year 2018 (2018-11-30 UTC)

Documentation

Showing up to 5 results
|